Regional Weather Roundup
Issued by NWS

Home | Current Version | Previous Version | Graphics & Text | Print | Product List | Glossary On
Versions: 1 2 3 4 5 6 7 8 9 10 11 12 13 14 15 16 17 18 19 20 21 22 23 24 25 26 27 28 29 30 31 32 33 34 35 36 37 38 39 40 41 42 43 44 45 46 47 48 49 50
000
ASUS43 KOAX 152202
RWRNE

WEATHER ROUNDUP FOR NEBRASKA
NATIONAL WEATHER SERVICE OMAHA NE
500 PM CDT MON SEP 15 2014

NOTES: SATELLITE DATA IS BEING USED TO AUGMENT CLOUD COVER ABOVE
       12000 FEET.
       "FAIR" INDICATES FEW OR NO CLOUDS BELOW 12,000 FEET WITH NO
       SIGNIFICANT WEATHER AND/OR OBSTRUCTIONS TO VISIBILITY.

  * THESE STATIONS DO NOT REPORT WEATHER SUCH AS RAIN...SNOW OR FOG.

NEZ001>004-019>022-054>056-152300-
NEBRASKA PANHANDLE

CITY           SKY/WX    TMP DP  RH WIND       PRES   REMARKS
SCOTTSBLUFF    SUNNY     72  45  37 SE18      30.20F
ALLIANCE       SUNNY     67  43  41 S12G21    30.23F
CHADRON        SUNNY     71  43  36 S13       30.18F
KIMBALL        SUNNY     67  43  41 S16       30.24F
SIDNEY         SUNNY     68  44  42 S14G22    30.26F
$$

NEZ057>060-069>072-079>082-152300-
SOUTHWEST NEBRASKA

CITY           SKY/WX    TMP DP  RH WIND       PRES   REMARKS
NORTH PLATTE   SUNNY     66  41  40 VRB5      30.26F
IMPERIAL       SUNNY     67  42  40 SE6       30.27F
LEXINGTON      SUNNY     65  44  45 E7        30.26S
MCCOOK         SUNNY     68  42  38 E5        30.26F
OGALLALA       SUNNY     68  44  42 S3        30.26F
$$

NEZ005>010-023>029-035>040-094-152300-
NORTH CENTRAL NEBRASKA

CITY           SKY/WX    TMP DP  RH WIND       PRES   REMARKS
VALENTINE      SUNNY     65  34  31 VRB5      30.24F
AINSWORTH      SUNNY     61  36  39 E5        30.25F
BROKEN BOW     SUNNY     66  38  35 NE3       30.25F
O`NEILL        SUNNY     62  41  45 CALM      30.26S
ORD            SUNNY     64  38  38 N7        30.24F
THEDFORD       SUNNY     66  39  36 N3        30.26F
$$

NEZ041-046>049-061>064-073>077-083>087-152300-
SOUTH CENTRAL NEBRASKA

CITY           SKY/WX    TMP DP  RH WIND       PRES   REMARKS
GRAND ISLAND   SUNNY     66  42  41 NE9       30.25F
AURORA         SUNNY     64  40  41 NE8       30.25S
HASTINGS       SUNNY     65  41  41 NE10      30.25S
HEBRON         SUNNY     68  41  37 NE13      30.23R
HOLDREGE       SUNNY     64  41  42 NE10      30.25S
KEARNEY *      SUNNY     64  43  45 N7        30.26S
YORK           MOSUNNY   63  46  55 NE9G17    30.24F
$$

NEZ011>018-030>034-042>045-152300-
NORTHEAST NEBRASKA

CITY           SKY/WX    TMP DP  RH WIND       PRES   REMARKS
NORFOLK        SUNNY     63  41  44 N9        30.25S
BLAIR          CLOUDY    61  46  57 NE7       30.23S
COLUMBUS *     SUNNY     63  43  48 N8        30.26S
FREMONT        PTSUNNY   63  42  46 N6        30.25S
TEKAMAH        PTSUNNY   65  44  46 N12G22    30.23F
WAYNE          MOSUNNY   63  41  45 N12       30.25S
$$

NEZ050>053-065>068-078-088>093-152300-
SOUTHEAST NEBRASKA

CITY           SKY/WX    TMP DP  RH WIND       PRES   REMARKS
LINCOLN        MOSUNNY   65  45  48 N12       30.24S
OMAHA EPPLEY   PTSUNNY   62  45  53 NE10      30.24S
BEATRICE       SUNNY     67  47  48 N14       30.22R
FALLS CITY     PTSUNNY   66  51  58 NE8G20    30.19S
NEBRASKA CITY  SUNNY     65  41  41 N12       30.22R
PLATTSMOUTH    PTSUNNY   63  46  53 N13       30.23S
$$

NEZ044-045-051>053-067-152300-
OMAHA AREA

CITY           SKY/WX    TMP DP  RH WIND       PRES   REMARKS
OMAHA EPPLEY   PTSUNNY   62  45  53 NE10      30.24S
BLAIR          CLOUDY    61  46  57 NE7       30.23S
FREMONT        PTSUNNY   63  42  46 N6        30.25S
MILLARD        MOSUNNY   63  45  52 NE7       30.23S
OFFUTT AFB     PTSUNNY   63  48  58 NE8       30.23S
PLATTSMOUTH    PTSUNNY   63  46  53 N13       30.23S
WAHOO          FAIR      65  43  44 N10       30.24S
$$



USA.gov is the U.S. government's official web portal to all federal, state and local government web resources and services.